Regional Weather Roundup
Issued by NWS

Home | Current Version | Previous Version | Graphics & Text | Print | Product List | Glossary On
Versions: 1 2 3 4 5 6 7 8 9 10 11 12 13 14 15 16 17 18 19 20 21 22 23 24 25 26 27 28 29 30 31 32 33 34 35 36 37 38 39 40 41 42 43 44 45 46 47 48 49 50
000
ASUS45 KBOU 060507
RWRCO

WEATHER ROUNDUP FOR COLORADO
NATIONAL WEATHER SERVICE DENVER/BOULDER CO
1100 PM MDT TUE MAY 05 2015

NOTE: "FAIR" INDICATES FEW OR NO CLOUDS BELOW 12000 FEET WITH NO
SIGNIFICANT WEATHER AND/OR OBSTRUCTIONS TO VISIBILITY.

COZ001>005-013-030-031-060600-
...NORTHWEST COLORADO...

CITY           SKY/WX    TMP DP  RH WIND       PRES   REMARKS
CRAIG          CLOUDY    51  45  79 SW10      29.83F
HAYDEN         CLOUDY    48  43  81 SW3       29.84F
MEEKER         RAIN      49  45  86 SW8       29.85S FOG
MOUNT WERNER   NOT AVBL
STEAMBOAT SPGS CLOUDY    46  42  84 E6        29.85F
WALDEN         CLOUDY    41  37  87 E6        29.86F
$$

COZ006>008-011-060600-
...WEST CENTRAL VALLEYS...

CITY           SKY/WX    TMP DP  RH WIND       PRES   REMARKS
GRAND JUNCTION CLOUDY    52  51  97 NW5       29.82S
MONTROSE       CLOUDY    50  49  96 S7        29.87F
EAGLE          CLOUDY    46  43  87 W7        29.89S
RIFLE          LGT RAIN  49  46  90 E6        29.84S
DELTA          CLOUDY    55  51  89 CALM      29.85S
NUCLA          CLOUDY    50  48  93 CALM      29.92S
$$

COZ017>023-064>068-060600-
...SOUTHWEST COLORADO...

CITY           SKY/WX    TMP DP  RH WIND       PRES   REMARKS
DURANGO        HVY RAIN  47  46  97 W8        29.94S FOG
CORTEZ         CLOUDY    50  48  93 NE5       29.91S
PAGOSA SPRINGS LGT RAIN  45  44  99 CALM      29.97S
TELLURIDE      LGT RAIN  40  39  97 CALM      30.01S
WOLF CREEK PAS NOT AVBL
$$

COZ009-010-012-014-032>034-037-058>063-060600-
...CENTRAL COLORADO...

CITY           SKY/WX    TMP DP  RH WIND       PRES   REMARKS
ASPEN          LGT RAIN N/A N/A N/A SW3       29.91S
BUENA VISTA    NOT AVBL
COPPER MTN       N/A     36  32  87 W3        30.02F
BERTHOUD PASS  MIX PCPN  28  21  74 N9G17     30.03F VSB<1/4 WCI  20
COTTONWOOD PAS CLOUDY    39  37  93 CALM      29.95F FOG
GUNNISON       CLOUDY    43  37  81 N3        29.94S
KREMMLING      LGT RAIN  43  36  75 W14       29.87F
LEADVILLE      LGT RAIN  36  36 100 CALM      29.93F
MONARCH PASS   FOG       30  30 100 MISG      30.11F VSB<1/4
SALIDA         CLOUDY    46  44  93 N5        29.95F
SUNLIGHT       LGT SNOW  34  34 100 CALM      30.02F VSB 3/4
WILKERSON PASS LGT SNOW  32  32 100 MISG      30.00F VSB 3/4
$$

COZ069>075-060600-
...SAN LUIS VALLEY/SANGRE DE CRISTO MOUNTAINS...

CITY           SKY/WX    TMP DP  RH WIND       PRES   REMARKS
ALAMOSA        CLOUDY    45  41  86 N3        29.90F
LA VETA PASS   CLOUDY   N/A N/A N/A MISG      29.93F HAZE
SAGUACHE       DRIZZLE   43  41  93 CALM      29.93S
$$

COZ035-036-038>040-060600-
...NORTHERN COLORADO FRONT RANGE...

CITY           SKY/WX    TMP DP  RH WIND       PRES   REMARKS
DENVER INTL AP LGT RAIN  50  48  93 NW13      29.77F
DMNS CITY PARK   N/A     49  48  95 NW5       29.78F
AURORA         DRIZZLE   48  48 100 NW7       29.79F
FRONT RANGE AP NOT AVBL
ERIE MUNI ARPT CLOUDY    50  49  95 NW3       29.78F
BOULDER MUN AP CLOUDY    50  50 100 W3        29.78F
CENTENNIAL     LGT RAIN  48  47  96 NW7       29.79F
BROOMFIELD     NOT AVBL
FORT COLLINS   CLOUDY    50  46  87 NW8       29.79F
LONGMONT       CLOUDY    53  50  90 NW3       29.79F
$$

COZ041-046-047-076>085-087-088-060600-
...PIKES PEAK/PALMER DIVIDE AND SOUTHERN FOOTHILLS...

CITY           SKY/WX    TMP DP  RH WIND       PRES   REMARKS
COLO. SPRINGS  LGT RAIN  47  45  93 S8        29.82S
A. F. ACADEMY  CLOUDY    45  45  99 W2        29.81F
ELLICOTT       CLOUDY   N/A N/A N/A CALM      29.80F
FALCON         CLOUDY    46  43  89 W5        29.83F
FORT CARSON    MOCLDY    48  44  83 W5        29.79F
LIMON          CLOUDY    48  46  93 W5        29.76F
MONUMENT HILL  CLOUDY    43  43 100 W9        29.81F FOG
TRINIDAD       PTCLDY    49  46  90 NE5       29.82S
$$

COZ042>045-048>051-090-091-060600-
...NORTHEAST COLORADO...

CITY           SKY/WX    TMP DP  RH WIND       PRES   REMARKS
GREELEY ARPT     N/A    N/A N/A N/A MISG        N/A
AKRON          CLOUDY    52  52 100 SE18      29.72F
BURLINGTON     MOCLDY    51  49  92 S15       29.75F
WRAY           CLOUDY   N/A N/A N/A E9        29.75F
STERLING       DRIZZLE   54  54 100 E12       29.73F
HOLYOKE        NOT AVBL
FORT MORGAN    CLOUDY    53  51  94 E15       29.72F
$$

COZ086-089-092>099-060600-
...SOUTHEAST COLORADO...

CITY           SKY/WX    TMP DP  RH WIND       PRES   REMARKS
PUEBLO         CLOUDY    50  49  96 SW5       29.78S
LA JUNTA       CLOUDY    54  51  90 SW9       29.77F
LAMAR          CLOUDY    54  52  93 S9        29.75F
SPRINGFIELD      N/A     49  47  93 S5        29.79F
$$


USA.gov is the U.S. government's official web portal to all federal, state and local government web resources and services.